| time (UTC) | temp F | wind direction | speed MPH | gust MPH | rain 1hr in | rain 24hr in | rain mn in | humidity % | barometer mb |
| 20260509070059 | 54 | 204 | 1.0 | 4.0 | 0.00 | 0.00 | 0.00 | 71 | 1024.0 |
| 20260509064804 | 53 | 204 | 3.0 | 5.0 | 0.00 | 0.00 | 0.00 | 73 | 1024.1 |
| 20260509064618 | 52 | 204 | 3.0 | 6.0 | 0.00 | 0.00 | 0.00 | 72 | 1024.1 |
| 20260509064304 | 52 | 204 | 3.0 | 6.0 | 0.00 | 0.00 | 0.00 | 72 | 1024.1 |
| 20260509063804 | 52 | 204 | 5.0 | 6.0 | 0.00 | 0.00 | 0.00 | 72 | 1024.0 |
| 20260509063305 | 52 | 199 | 3.0 | 6.0 | 0.00 | 0.00 | 0.00 | 73 | 1024.1 |
| 20260509063100 | 51 | 192 | 4.0 | 6.0 | 0.00 | 0.00 | 0.00 | 73 | 1024.0 |
| 20260509061622 | 50 | 0 | 3.0 | 6.0 | 0.00 | 0.00 | 0.00 | 74 | 1024.1 |
| 20260509061304 | 51 | 155 | 2.0 | 5.0 | 0.00 | 0.00 | 0.00 | 75 | 1024.1 |
| 20260509060306 | 50 | 184 | 6.0 | 8.0 | 0.00 | 0.00 | 0.00 | 76 | 1024.0 |
| 20260509060058 | 50 | 174 | 5.0 | 8.0 | 0.00 | 0.00 | 0.00 | 75 | 1024.0 |
| 20260509054804 | 49 | 178 | 7.0 | 9.0 | 0.00 | 0.00 | 0.00 | 77 | 1024.0 |
| 20260509054559 | 48 | 178 | 6.0 | 10.0 | 0.00 | 0.00 | 0.00 | 77 | 1023.9 |
| 20260509053804 | 48 | 171 | 6.0 | 10.0 | 0.00 | 0.00 | 0.00 | 78 | 1024.0 |
| 20260509053102 | 47 | 167 | 7.0 | 10.0 | 0.00 | 0.00 | 0.00 | 79 | 1023.9 |
| 20260509051804 | 46 | 176 | 8.0 | 10.0 | 0.00 | 0.00 | 0.00 | 80 | 1023.9 |
| 20260509051607 | 46 | 180 | 8.0 | 10.0 | 0.00 | 0.00 | 0.00 | 80 | 1024.0 |
| 20260509051304 | 46 | 179 | 9.0 | 10.0 | 0.00 | 0.00 | 0.00 | 81 | 1024.0 |
| 20260509050804 | 45 | 177 | 9.0 | 10.0 | 0.00 | 0.00 | 0.00 | 81 | 1024.0 |
| 20260509050304 | 45 | 177 | 9.0 | 10.0 | 0.00 | 0.00 | 0.00 | 82 | 1024.0 |
| 20260509050105 | 44 | 177 | 9.0 | 10.0 | 0.00 | 0.00 | 0.00 | 81 | 1023.9 |
| 20260509044804 | 44 | 174 | 9.0 | 10.0 | 0.00 | 0.00 | 0.00 | 82 | 1023.9 |
| 20260509044610 | 43 | 171 | 8.0 | 10.0 | 0.00 | 0.00 | 0.00 | 82 | 1023.9 |
| 20260509044304 | 43 | 175 | 8.0 | 10.0 | 0.00 | 0.00 | 0.00 | 83 | 1023.9 |
| 20260509043804 | 43 | 173 | 8.0 | 10.0 | 0.00 | 0.00 | 0.00 | 83 | 1023.9 |
| 20260509043304 | 43 | 174 | 9.0 | 12.0 | 0.00 | 0.00 | 0.00 | 83 | 1023.9 |
| 20260509043106 | 42 | 182 | 9.0 | 11.0 | 0.00 | 0.00 | 0.00 | 83 | 1023.8 |
| 20260509041804 | 42 | 177 | 10.0 | 12.0 | 0.00 | 0.00 | 0.00 | 84 | 1023.8 |
| 20260509041606 | 41 | 177 | 9.0 | 11.0 | 0.00 | 0.00 | 0.00 | 83 | 1023.8 |
| 20260509041304 | 42 | 179 | 10.0 | 12.0 | 0.00 | 0.00 | 0.00 | 84 | 1023.9 |
| 20260509040804 | 41 | 179 | 10.0 | 12.0 | 0.00 | 0.00 | 0.00 | 84 | 1023.9 |
| 20260509040106 | 40 | 180 | 10.0 | 11.0 | 0.00 | 0.00 | 0.00 | 84 | 1023.9 |
| 20260509034804 | 40 | 183 | 9.0 | 10.0 | 0.00 | 0.00 | 0.00 | 84 | 1024.1 |
| 20260509034558 | 40 | 183 | 9.0 | 10.0 | 0.00 | 0.00 | 0.00 | 83 | 1024.1 |
| 20260509034304 | 40 | 186 | 9.0 | 10.0 | 0.00 | 0.00 | 0.00 | 84 | 1024.0 |
| 20260509033804 | 40 | 186 | 9.0 | 10.0 | 0.00 | 0.00 | 0.00 | 84 | 1024.1 |
| 20260509033059 | 40 | 188 | 8.0 | 10.0 | 0.00 | 0.00 | 0.00 | 83 | 1024.1 |
| 20260509031804 | 40 | 191 | 8.0 | 10.0 | 0.00 | 0.00 | 0.00 | 83 | 1024.0 |
| 20260509031600 | 39 | 195 | 7.0 | 9.0 | 0.00 | 0.00 | 0.00 | 83 | 1024.1 |
| 20260509031304 | 39 | 197 | 7.0 | 9.0 | 0.00 | 0.00 | 0.00 | 83 | 1024.1 |
| 20260509030804 | 39 | 196 | 7.0 | 8.0 | 0.00 | 0.00 | 0.00 | 83 | 1024.1 |
| 20260509030304 | 40 | 197 | 7.0 | 9.0 | 0.00 | 0.00 | 0.00 | 83 | 1024.2 |
| 20260509030056 | 39 | 197 | 7.0 | 9.0 | 0.00 | 0.00 | 0.00 | 83 | 1024.1 |
| 20260509024558 | 39 | 186 | 7.0 | 9.0 | 0.00 | 0.00 | 0.00 | 82 | 1024.1 |
| 20260509023804 | 40 | 202 | 6.0 | 7.0 | 0.00 | 0.00 | 0.00 | 82 | 1024.2 |
| 20260509023304 | 40 | 202 | 6.0 | 8.0 | 0.00 | 0.00 | 0.00 | 82 | 1024.3 |
| 20260509023102 | 40 | 202 | 6.0 | 8.0 | 0.00 | 0.00 | 0.00 | 82 | 1024.3 |
| 20260509021804 | 41 | 202 | 7.0 | 8.0 | 0.00 | 0.00 | 0.00 | 82 | 1024.3 |
| 20260509021600 | 41 | 202 | 7.0 | 8.0 | 0.00 | 0.00 | 0.00 | 82 | 1024.3 |
| 20260509021304 | 41 | 207 | 7.0 | 8.0 | 0.00 | 0.00 | 0.00 | 82 | 1024.3 |
| 20260509020804 | 41 | 202 | 7.0 | 8.0 | 0.00 | 0.00 | 0.00 | 82 | 1024.3 |
| 20260509020304 | 41 | 202 | 7.0 | 8.0 | 0.00 | 0.00 | 0.00 | 82 | 1024.4 |
| 20260509020058 | 41 | 202 | 6.0 | 8.0 | 0.00 | 0.00 | 0.00 | 82 | 1024.3 |
| 20260509014804 | 41 | 204 | 7.0 | 8.0 | 0.00 | 0.00 | 0.00 | 82 | 1024.4 |
| 20260509014558 | 41 | 204 | 7.0 | 9.0 | 0.00 | 0.00 | 0.00 | 82 | 1024.4 |
| 20260509014304 | 40 | 199 | 7.0 | 8.0 | 0.00 | 0.00 | 0.00 | 82 | 1024.4 |
| 20260509013804 | 40 | 203 | 7.0 | 8.0 | 0.00 | 0.00 | 0.00 | 81 | 1024.4 |
| 20260509013304 | 40 | 204 | 8.0 | 9.0 | 0.00 | 0.00 | 0.00 | 81 | 1024.4 |
| 20260509013059 | 39 | 203 | 7.0 | 9.0 | 0.00 | 0.00 | 0.00 | 81 | 1024.3 |
| 20260509011804 | 40 | 211 | 7.0 | 8.0 | 0.00 | 0.00 | 0.00 | 81 | 1024.4 |
| 20260509011601 | 39 | 213 | 7.0 | 9.0 | 0.00 | 0.00 | 0.00 | 80 | 1024.4 |
| 20260509011304 | 40 | 210 | 7.0 | 8.0 | 0.00 | 0.00 | 0.00 | 81 | 1024.5 |
| 20260509010304 | 40 | 209 | 7.0 | 10.0 | 0.00 | 0.00 | 0.00 | 80 | 1024.6 |
| 20260509010104 | 40 | 210 | 7.0 | 10.0 | 0.00 | 0.00 | 0.00 | 80 | 1024.5 |
| 20260509004804 | 41 | 218 | 8.0 | 10.0 | 0.00 | 0.00 | 0.00 | 80 | 1024.5 |
| 20260509004621 | 40 | 217 | 7.0 | 11.0 | 0.00 | 0.00 | 0.00 | 79 | 1024.5 |
| 20260509004304 | 41 | 216 | 9.0 | 10.0 | 0.00 | 0.00 | 0.00 | 80 | 1024.6 |
| 20260509003805 | 41 | 210 | 8.0 | 9.0 | 0.00 | 0.00 | 0.00 | 80 | 1024.5 |
| 20260509003305 | 41 | 204 | 9.0 | 10.0 | 0.00 | 0.00 | 0.00 | 80 | 1024.6 |
| 20260509003057 | 41 | 202 | 9.0 | 10.0 | 0.00 | 0.00 | 0.00 | 79 | 1024.5 |
| 20260509001804 | 41 | 208 | 8.0 | 10.0 | 0.00 | 0.00 | 0.00 | 78 | 1024.5 |
| 20260509001559 | 41 | 208 | 8.0 | 10.0 | 0.00 | 0.00 | 0.00 | 78 | 1024.4 |
| 20260509001304 | 41 | 206 | 9.0 | 10.0 | 0.00 | 0.00 | 0.00 | 78 | 1024.5 |
| 20260509000805 | 41 | 208 | 8.0 | 9.0 | 0.00 | 0.00 | 0.00 | 78 | 1024.5 |
| 20260509000304 | 42 | 207 | 8.0 | 8.0 | 0.00 | 0.00 | 0.00 | 77 | 1024.5 |
| 20260509000056 | 41 | 215 | 7.0 | 9.0 | 0.00 | 0.00 | 0.00 | 77 | 1024.4 |
| 20260508234804 | 43 | 212 | 7.0 | 8.0 | 0.00 | 0.00 | 0.00 | 77 | 1024.4 |
| 20260508234606 | 43 | 206 | 7.0 | 9.0 | 0.00 | 0.00 | 0.00 | 77 | 1024.4 |
| 20260508234304 | 44 | 201 | 7.0 | 9.0 | 0.00 | 0.00 | 0.00 | 77 | 1024.4 |
| 20260508233804 | 44 | 198 | 8.0 | 9.0 | 0.00 | 0.00 | 0.00 | 77 | 1024.5 |
| 20260508233058 | 43 | 194 | 9.0 | 10.0 | 0.00 | 0.00 | 0.00 | 77 | 1024.5 |
| 20260508231804 | 42 | 191 | 9.0 | 10.0 | 0.00 | 0.00 | 0.00 | 78 | 1024.6 |
| 20260508231559 | 42 | 190 | 8.0 | 10.0 | 0.00 | 0.00 | 0.00 | 78 | 1024.6 |
| 20260508231304 | 42 | 189 | 9.0 | 9.0 | 0.00 | 0.00 | 0.00 | 78 | 1024.6 |
| 20260508230804 | 41 | 239 | 9.0 | 9.0 | 0.00 | 0.00 | 0.00 | 78 | 1024.6 |
| 20260508230304 | 41 | 239 | 8.0 | 9.0 | 0.00 | 0.00 | 0.00 | 79 | 1024.7 |
| 20260508230058 | 41 | 239 | 8.0 | 9.0 | 0.00 | 0.00 | 0.00 | 78 | 1024.5 |
| 20260508224804 | 41 | 239 | 7.0 | 8.0 | 0.00 | 0.00 | 0.00 | 78 | 1024.5 |
| 20260508224559 | 41 | 239 | 6.0 | 8.0 | 0.00 | 0.00 | 0.00 | 77 | 1024.4 |
| 20260508224304 | 41 | 239 | 5.0 | 7.0 | 0.00 | 0.00 | 0.00 | 78 | 1024.5 |
| 20260508223304 | 42 | 239 | 5.0 | 5.0 | 0.00 | 0.00 | 0.00 | 78 | 1024.5 |
| 20260508223058 | 42 | 239 | 4.0 | 5.0 | 0.00 | 0.00 | 0.00 | 77 | 1024.3 |
| 20260508221805 | 43 | 239 | 5.0 | 5.0 | 0.00 | 0.00 | 0.00 | 77 | 1024.4 |
| 20260508221558 | 42 | 239 | 4.0 | 7.0 | 0.00 | 0.00 | 0.00 | 77 | 1024.5 |
| 20260508221304 | 43 | 239 | 5.0 | 5.0 | 0.00 | 0.00 | 0.00 | 77 | 1024.4 |
| 20260508220305 | 43 | 239 | 4.0 | 5.0 | 0.00 | 0.00 | 0.00 | 77 | 1024.4 |
| 20260508220100 | 43 | 239 | 3.0 | 5.0 | 0.00 | 0.00 | 0.00 | 77 | 1024.2 |
| 20260508214607 | 43 | 239 | 3.0 | 5.0 | 0.00 | 0.00 | 0.00 | 77 | 1024.3 |
| 20260508214304 | 44 | 354 | 4.0 | 5.0 | 0.00 | 0.00 | 0.00 | 77 | 1024.3 |
| 20260508213804 | 44 | 354 | 3.0 | 3.0 | 0.00 | 0.00 | 0.00 | 77 | 1024.3 |
| 20260508213304 | 44 | 354 | 3.0 | 3.0 | 0.00 | 0.00 | 0.00 | 76 | 1024.3 |
| 20260508213057 | 44 | 354 | 2.0 | 3.0 | 0.00 | 0.00 | 0.00 | 76 | 1024.2 |
| 20260508211804 | 45 | 354 | 1.0 | 2.0 | 0.00 | 0.00 | 0.00 | 76 | 1024.2 |
| 20260508211559 | 45 | 354 | 0.0 | 2.0 | 0.00 | 0.00 | 0.00 | 76 | 1024.1 |
| 20260508211304 | 45 | 354 | 1.0 | 1.0 | 0.00 | 0.00 | 0.00 | 76 | 1024.1 |
| 20260508210804 | 45 | 354 | 1.0 | 1.0 | 0.00 | 0.00 | 0.00 | 76 | 1024.1 |
| 20260508210304 | 45 | 354 | 0.0 | 1.0 | 0.00 | 0.00 | 0.00 | 76 | 1024.1 |
| 20260508210100 | 45 | 0 | 0.0 | 1.0 | 0.00 | 0.00 | 0.00 | 75 | 1024.0 |
| 20260508204558 | 45 | 0 | 0.0 | 1.0 | 0.00 | 0.00 | 0.00 | 75 | 1024.0 |
| 20260508204304 | 46 | 354 | 0.0 | 0.0 | 0.00 | 0.00 | 0.00 | 75 | 1024.0 |
| 20260508203304 | 47 | 354 | 0.0 | 2.0 | 0.00 | 0.00 | 0.00 | 74 | 1023.9 |
| 20260508203057 | 46 | 0 | 0.0 | 2.0 | 0.00 | 0.00 | 0.00 | 74 | 1023.9 |
| 20260508201558 | 47 | 0 | 0.0 | 1.0 | 0.00 | 0.00 | 0.00 | 73 | 1023.7 |
| 20260508201304 | 48 | 354 | 0.0 | 1.0 | 0.00 | 0.00 | 0.00 | 74 | 1023.7 |
| 20260508200805 | 48 | 354 | 1.0 | 1.0 | 0.00 | 0.00 | 0.00 | 73 | 1023.7 |
| 20260508200057 | 48 | 354 | 1.0 | 3.0 | 0.00 | 0.00 | 0.00 | 72 | 1023.7 |
| 20260508194804 | 49 | 354 | 2.0 | 3.0 | 0.00 | 0.00 | 0.00 | 71 | 1023.7 |
| 20260508194558 | 49 | 354 | 1.0 | 3.0 | 0.00 | 0.00 | 0.00 | 70 | 1023.6 |
| 20260508194304 | 50 | 354 | 2.0 | 3.0 | 0.00 | 0.00 | 0.00 | 71 | 1023.7 |
| 20260508193804 | 50 | 354 | 2.0 | 3.0 | 0.00 | 0.00 | 0.00 | 70 | 1023.7 |
| 20260508193304 | 50 | 354 | 2.0 | 3.0 | 0.00 | 0.00 | 0.00 | 70 | 1023.7 |
| 20260508193110 | 50 | 354 | 2.0 | 3.0 | 0.00 | 0.00 | 0.00 | 69 | 1023.6 |
| 20260508191804 | 52 | 354 | 1.0 | 2.0 | 0.00 | 0.00 | 0.00 | 68 | 1023.4 |
| 20260508191600 | 51 | 0 | 0.0 | 1.0 | 0.00 | 0.00 | 0.00 | 67 | 1023.4 |
| 20260508191304 | 52 | 354 | 0.0 | 0.0 | 0.00 | 0.00 | 0.00 | 67 | 1023.5 |
| 20260508190804 | 52 | 354 | 1.0 | 1.0 | 0.00 | 0.00 | 0.00 | 67 | 1023.4 |
| 20260508190304 | 53 | 354 | 1.0 | 2.0 | 0.00 | 0.00 | 0.00 | 66 | 1023.4 |
| 20260508190113 | 52 | 354 | 1.0 | 2.0 | 0.00 | 0.00 | 0.00 | 65 | 1023.3 |
| 20260508184804 | 54 | 354 | 1.0 | 2.0 | 0.00 | 0.00 | 0.00 | 64 | 1023.3 |
| 20260508184604 | 54 | 354 | 0.0 | 3.0 | 0.00 | 0.00 | 0.00 | 63 | 1023.3 |
| 20260508184304 | 55 | 354 | 1.0 | 2.0 | 0.00 | 0.00 | 0.00 | 63 | 1023.3 |
| 20260508183804 | 55 | 354 | 2.0 | 3.0 | 0.00 | 0.00 | 0.00 | 62 | 1023.3 |
| 20260508183304 | 55 | 354 | 2.0 | 3.0 | 0.00 | 0.00 | 0.00 | 62 | 1023.3 |
| 20260508183115 | 55 | 354 | 1.0 | 3.0 | 0.00 | 0.00 | 0.00 | 61 | 1023.2 |
| 20260508181600 | 55 | 354 | 2.0 | 4.0 | 0.00 | 0.00 | 0.00 | 62 | 1023.2 |
| 20260508181304 | 55 | 343 | 2.0 | 3.0 | 0.00 | 0.00 | 0.00 | 62 | 1023.2 |
| 20260508180804 | 56 | 322 | 2.0 | 3.0 | 0.00 | 0.00 | 0.00 | 61 | 1023.2 |
| 20260508180304 | 56 | 322 | 2.0 | 3.0 | 0.00 | 0.00 | 0.00 | 61 | 1023.2 |
| 20260508174804 | 56 | 322 | 2.0 | 3.0 | 0.00 | 0.00 | 0.00 | 62 | 1023.2 |
| 20260508174612 | 56 | 322 | 1.0 | 4.0 | 0.00 | 0.00 | 0.00 | 61 | 1023.2 |
| 20260508174304 | 56 | 322 | 2.0 | 3.0 | 0.00 | 0.00 | 0.00 | 61 | 1023.2 |
| 20260508173304 | 56 | 359 | 1.0 | 5.0 | 0.00 | 0.00 | 0.00 | 61 | 1023.1 |
| 20260508173058 | 56 | 359 | 1.0 | 5.0 | 0.00 | 0.00 | 0.00 | 61 | 1023.1 |
| 20260508171804 | 56 | 345 | 3.0 | 8.0 | 0.00 | 0.00 | 0.00 | 67 | 1023.1 |
| 20260508171606 | 55 | 6 | 4.0 | 8.0 | 0.00 | 0.00 | 0.00 | 66 | 1023.0 |
| 20260508171304 | 56 | 23 | 3.0 | 6.0 | 0.00 | 0.00 | 0.00 | 66 | 1023.1 |
| 20260508170804 | 56 | 25 | 6.0 | 8.0 | 0.00 | 0.00 | 0.00 | 66 | 1023.1 |
| 20260508170304 | 56 | 38 | 5.0 | 7.0 | 0.00 | 0.00 | 0.00 | 66 | 1023.1 |
| 20260508170106 | 55 | 50 | 3.0 | 7.0 | 0.00 | 0.00 | 0.00 | 65 | 1023.1 |
| 20260508164600 | 56 | 1 | 3.0 | 5.0 | 0.00 | 0.00 | 0.00 | 66 | 1023.0 |
| 20260508164304 | 56 | 6 | 3.0 | 5.0 | 0.00 | 0.00 | 0.00 | 67 | 1022.9 |
| 20260508163804 | 56 | 334 | 3.0 | 5.0 | 0.00 | 0.00 | 0.00 | 67 | 1022.9 |
| 20260508163057 | 56 | 312 | 3.0 | 6.0 | 0.00 | 0.00 | 0.00 | 68 | 1022.8 |
| 20260508161804 | 56 | 312 | 4.0 | 6.0 | 0.00 | 0.00 | 0.00 | 69 | 1023.0 |
| 20260508161606 | 56 | 304 | 3.0 | 8.0 | 0.00 | 0.00 | 0.00 | 69 | 1023.0 |
| 20260508160804 | 57 | 317 | 3.0 | 9.0 | 0.00 | 0.00 | 0.00 | 69 | 1023.0 |
| 20260508160304 | 56 | 22 | 5.0 | 10.0 | 0.00 | 0.00 | 0.00 | 70 | 1022.9 |
| 20260508160055 | 56 | 10 | 3.0 | 10.0 | 0.00 | 0.00 | 0.00 | 70 | 1023.0 |
| 20260508154555 | 56 | 337 | 4.0 | 9.0 | 0.00 | 0.00 | 0.00 | 70 | 1022.8 |
| 20260508154304 | 57 | 11 | 5.0 | 7.0 | 0.00 | 0.00 | 0.00 | 71 | 1023.0 |
| 20260508153804 | 56 | 321 | 5.0 | 9.0 | 0.00 | 0.00 | 0.00 | 72 | 1022.9 |
| 20260508153304 | 56 | 332 | 4.0 | 10.0 | 0.00 | 0.00 | 0.00 | 71 | 1022.9 |
| 20260508153059 | 56 | 300 | 7.0 | 10.0 | 0.00 | 0.00 | 0.00 | 70 | 1022.8 |
| 20260508151804 | 56 | 315 | 5.0 | 9.0 | 0.00 | 0.00 | 0.00 | 69 | 1023.0 |
| 20260508151557 | 56 | 302 | 6.0 | 9.0 | 0.00 | 0.00 | 0.00 | 70 | 1022.9 |
| 20260508151304 | 56 | 320 | 6.0 | 8.0 | 0.00 | 0.00 | 0.00 | 70 | 1023.0 |
| 20260508150804 | 56 | 310 | 6.0 | 8.0 | 0.00 | 0.00 | 0.00 | 69 | 1023.0 |
| 20260508150304 | 56 | 298 | 6.0 | 9.0 | 0.00 | 0.00 | 0.00 | 70 | 1023.0 |
| 20260508150059 | 56 | 311 | 5.0 | 9.0 | 0.00 | 0.00 | 0.00 | 70 | 1023.0 |
| 20260508144804 | 56 | 296 | 7.0 | 8.0 | 0.00 | 0.00 | 0.00 | 71 | 1023.1 |
| 20260508144607 | 55 | 284 | 5.0 | 10.0 | 0.00 | 0.00 | 0.00 | 70 | 1023.1 |
| 20260508144304 | 56 | 301 | 7.0 | 9.0 | 0.00 | 0.00 | 0.00 | 72 | 1023.2 |
| 20260508143804 | 56 | 309 | 9.0 | 10.0 | 0.00 | 0.00 | 0.00 | 72 | 1023.2 |
| 20260508143305 | 56 | 296 | 9.0 | 12.0 | 0.00 | 0.00 | 0.00 | 71 | 1023.3 |
| 20260508143059 | 55 | 301 | 7.0 | 12.0 | 0.00 | 0.00 | 0.00 | 71 | 1023.2 |
| 20260508141804 | 56 | 319 | 9.0 | 12.0 | 0.00 | 0.00 | 0.00 | 72 | 1023.3 |
| 20260508141606 | 56 | 309 | 7.0 | 10.0 | 0.00 | 0.00 | 0.00 | 72 | 1023.4 |
| 20260508141304 | 56 | 311 | 7.0 | 10.0 | 0.00 | 0.00 | 0.00 | 72 | 1023.4 |
| 20260508140804 | 56 | 300 | 7.0 | 12.0 | 0.00 | 0.00 | 0.00 | 71 | 1023.3 |
| 20260508140057 | 55 | 322 | 8.0 | 12.0 | 0.00 | 0.00 | 0.00 | 72 | 1023.2 |
| 20260508134804 | 56 | 298 | 10.0 | 13.0 | 0.00 | 0.00 | 0.00 | 70 | 1023.4 |
| 20260508134601 | 56 | 278 | 11.0 | 13.0 | 0.00 | 0.00 | 0.00 | 70 | 1023.4 |
| 20260508134304 | 56 | 297 | 10.0 | 13.0 | 0.00 | 0.00 | 0.00 | 70 | 1023.4 |
| 20260508133804 | 56 | 303 | 10.0 | 13.0 | 0.00 | 0.00 | 0.00 | 70 | 1023.4 |
| 20260508133304 | 56 | 307 | 10.0 | 13.0 | 0.00 | 0.00 | 0.00 | 69 | 1023.3 |
| 20260508133058 | 56 | 308 | 9.0 | 13.0 | 0.00 | 0.00 | 0.00 | 69 | 1023.3 |
| 20260508131804 | 57 | 293 | 9.0 | 13.0 | 0.00 | 0.00 | 0.00 | 68 | 1023.3 |
| 20260508131607 | 57 | 303 | 10.0 | 15.0 | 0.00 | 0.00 | 0.00 | 67 | 1023.3 |
| 20260508131304 | 57 | 300 | 12.0 | 13.0 | 0.00 | 0.00 | 0.00 | 67 | 1023.3 |
| 20260508130304 | 56 | 286 | 13.0 | 18.0 | 0.00 | 0.00 | 0.00 | 68 | 1023.5 |
| 20260508130059 | 56 | 294 | 12.0 | 18.0 | 0.00 | 0.00 | 0.00 | 67 | 1023.5 |
| 20260508124804 | 56 | 284 | 11.0 | 14.0 | 0.00 | 0.00 | 0.00 | 68 | 1023.5 |
| 20260508124559 | 56 | 284 | 11.0 | 14.0 | 0.00 | 0.00 | 0.00 | 67 | 1023.4 |
| 20260508124304 | 57 | 290 | 12.0 | 14.0 | 0.00 | 0.00 | 0.00 | 66 | 1023.5 |
| 20260508123803 | 57 | 279 | 10.0 | 13.0 | 0.00 | 0.00 | 0.00 | 64 | 1023.5 |
| 20260508123304 | 57 | 285 | 10.0 | 18.0 | 0.00 | 0.00 | 0.00 | 65 | 1023.4 |
| 20260508123116 | 56 | 285 | 11.0 | 18.0 | 0.00 | 0.00 | 0.00 | 66 | 1023.4 |
| 20260508121804 | 57 | 299 | 13.0 | 16.0 | 0.00 | 0.00 | 0.00 | 65 | 1023.4 |
| 20260508121610 | 56 | 289 | 13.0 | 18.0 | 0.00 | 0.00 | 0.00 | 65 | 1023.4 |
| 20260508121304 | 57 | 303 | 13.0 | 15.0 | 0.00 | 0.00 | 0.00 | 64 | 1023.4 |
| 20260508120804 | 57 | 297 | 13.0 | 17.0 | 0.00 | 0.00 | 0.00 | 61 | 1023.5 |
| 20260508120304 | 57 | 296 | 12.0 | 17.0 | 0.00 | 0.00 | 0.00 | 61 | 1023.4 |
| 20260508120111 | 57 | 306 | 11.0 | 17.0 | 0.00 | 0.00 | 0.00 | 61 | 1023.4 |
| 20260508114804 | 58 | 273 | 12.0 | 15.0 | 0.00 | 0.00 | 0.00 | 56 | 1023.4 |
| 20260508114602 | 58 | 285 | 12.0 | 15.0 | 0.00 | 0.00 | 0.00 | 56 | 1023.3 |
| 20260508114304 | 58 | 297 | 12.0 | 15.0 | 0.00 | 0.00 | 0.00 | 57 | 1023.3 |
| 20260508113804 | 58 | 305 | 11.0 | 15.0 | 0.00 | 0.00 | 0.00 | 54 | 1023.2 |
| 20260508113304 | 58 | 286 | 11.0 | 18.0 | 0.00 | 0.00 | 0.00 | 51 | 1023.2 |
| 20260508113108 | 58 | 291 | 11.0 | 17.0 | 0.00 | 0.00 | 0.00 | 50 | 1023.2 |
| 20260508111804 | 57 | 271 | 13.0 | 20.0 | 0.00 | 0.00 | 0.00 | 55 | 1023.2 |
| 20260508111559 | 57 | 302 | 14.0 | 20.0 | 0.00 | 0.00 | 0.00 | 56 | 1023.2 |
| 20260508111304 | 57 | 277 | 14.0 | 17.0 | 0.00 | 0.00 | 0.00 | 59 | 1023.1 |
| 20260508110804 | 58 | 277 | 13.0 | 20.0 | 0.00 | 0.00 | 0.00 | 58 | 1023.0 |
| 20260508110304 | 58 | 261 | 11.0 | 18.0 | 0.00 | 0.00 | 0.00 | 60 | 1023.0 |
| 20260508110107 | 57 | 258 | 11.0 | 17.0 | 0.00 | 0.00 | 0.00 | 60 | 1023.0 |
| 20260508104804 | 57 | 277 | 10.0 | 16.0 | 0.00 | 0.00 | 0.00 | 63 | 1023.0 |
| 20260508104559 | 57 | 291 | 9.0 | 15.0 | 0.00 | 0.00 | 0.00 | 63 | 1022.9 |
| 20260508103108 | 56 | 295 | 13.0 | 16.0 | 0.00 | 0.00 | 0.00 | 65 | 1022.9 |
| 20260508101804 | 59 | 299 | 10.0 | 13.0 | 0.00 | 0.00 | 0.00 | 60 | 1022.9 |
| 20260508101559 | 59 | 310 | 11.0 | 13.0 | 0.00 | 0.00 | 0.00 | 60 | 1022.9 |
| 20260508101304 | 60 | 296 | 10.0 | 13.0 | 0.00 | 0.00 | 0.00 | 58 | 1022.8 |
| 20260508100804 | 62 | 290 | 7.0 | 10.0 | 0.00 | 0.00 | 0.00 | 50 | 1022.8 |
| 20260508100304 | 62 | 234 | 9.0 | 15.0 | 0.00 | 0.00 | 0.00 | 40 | 1022.8 |
| 20260508100058 | 62 | 204 | 10.0 | 15.0 | 0.00 | 0.00 | 0.00 | 40 | 1022.7 |
| 20260508094804 | 61 | 162 | 2.0 | 9.0 | 0.00 | 0.00 | 0.00 | 41 | 1022.7 |
| 20260508094555 | 61 | 157 | 5.0 | 17.0 | 0.00 | 0.00 | 0.00 | 40 | 1022.6 |
| 20260508094304 | 62 | 164 | 7.0 | 13.0 | 0.00 | 0.00 | 0.00 | 40 | 1022.7 |
| 20260508093804 | 61 | 206 | 13.0 | 17.0 | 0.00 | 0.00 | 0.00 | 40 | 1022.7 |
| 20260508093304 | 61 | 193 | 8.0 | 13.0 | 0.00 | 0.00 | 0.00 | 42 | 1022.6 |
| 20260508093106 | 60 | 165 | 3.0 | 12.0 | 0.00 | 0.00 | 0.00 | 41 | 1022.6 |
| 20260508091804 | 60 | 219 | 5.0 | 9.0 | 0.00 | 0.00 | 0.00 | 42 | 1022.7 |
| 20260508091557 | 60 | 233 | 5.0 | 12.0 | 0.00 | 0.00 | 0.00 | 43 | 1022.6 |
| 20260508091304 | 60 | 181 | 7.0 | 12.0 | 0.00 | 0.00 | 0.00 | 44 | 1022.7 |
| 20260508090804 | 60 | 209 | 7.0 | 10.0 | 0.00 | 0.00 | 0.00 | 42 | 1022.8 |
| 20260508090304 | 60 | 213 | 5.0 | 12.0 | 0.00 | 0.00 | 0.00 | 44 | 1022.7 |
| 20260508090106 | 59 | 163 | 4.0 | 12.0 | 0.00 | 0.00 | 0.00 | 43 | 1022.7 |
| 20260508084804 | 59 | 179 | 5.0 | 10.0 | 0.00 | 0.00 | 0.00 | 45 | 1022.8 |
| 20260508084559 | 58 | 169 | 6.0 | 11.0 | 0.00 | 0.00 | 0.00 | 44 | 1022.8 |
| 20260508084304 | 59 | 206 | 6.0 | 12.0 | 0.00 | 0.00 | 0.00 | 45 | 1022.8 |
| 20260508083804 | 58 | 177 | 5.0 | 10.0 | 0.00 | 0.00 | 0.00 | 46 | 1022.8 |
| 20260508083304 | 58 | 180 | 6.0 | 12.0 | 0.00 | 0.00 | 0.00 | 48 | 1022.8 |
| 20260508083057 | 57 | 209 | 7.0 | 12.0 | 0.00 | 0.00 | 0.00 | 48 | 1022.6 |
| 20260508081804 | 57 | 178 | 6.0 | 10.0 | 0.00 | 0.00 | 0.00 | 49 | 1022.7 |
| 20260508081601 | 56 | 178 | 5.0 | 14.0 | 0.00 | 0.00 | 0.00 | 49 | 1022.7 |
| 20260508080804 | 57 | 179 | 9.0 | 13.0 | 0.00 | 0.00 | 0.00 | 48 | 1022.8 |
| 20260508080054 | 56 | 175 | 7.0 | 12.0 | 0.00 | 0.00 | 0.00 | 50 | 1022.7 |
| 20260508074804 | 57 | 169 | 7.0 | 12.0 | 0.00 | 0.00 | 0.00 | 48 | 1022.7 |
| 20260508074556 | 56 | 177 | 6.0 | 11.0 | 0.00 | 0.00 | 0.00 | 48 | 1022.6 |
| 20260508074304 | 57 | 179 | 4.0 | 8.0 | 0.00 | 0.00 | 0.00 | 48 | 1022.7 |
| 20260508073304 | 56 | 176 | 3.0 | 9.0 | 0.00 | 0.00 | 0.00 | 49 | 1022.7 |
| 20260508073056 | 56 | 204 | 4.0 | 9.0 | 0.00 | 0.00 | 0.00 | 48 | 1022.6 |
| 20260508071555 | 56 | 177 | 2.0 | 5.0 | 0.00 | 0.00 | 0.00 | 48 | 1022.5 |
| 20260508071304 | 56 | 197 | 3.0 | 5.0 | 0.00 | 0.00 | 0.00 | 49 | 1022.6 |
| 20260508070804 | 56 | 190 | 1.0 | 3.0 | 0.00 | 0.00 | 0.00 | 48 | 1022.5 |